Madera, CA

9:00 PM PST on February 06, 2016 (GMT -0800)
Madera Municipal

Weather History for KMAE - August, 2014

Change the Weather History Date:

Friday, August 8, 2014

  Actual Average Record
Temperature  
Mean Temperature 84 °F 78 °F  
Max Temperature 100 °F 96 °F 105 °F (2001)
Min Temperature 67 °F 60 °F 53 °F (2007)
Degree Days  
Heating Degree Days 0    
Month to date heating degree days 0  
Since 1 June heating degree days 0  
Since 1 July heating degree days 0  
Cooling Degree Days 19    
Month to date cooling degree days 119  
Year to date cooling degree days 1242  
Since 1 June cooling degree days 1000  
Growing Degree Days 34 (Base 50)    
Moisture  
Dew Point 53 °F    
Average Humidity 38    
Maximum Humidity 61    
Minimum Humidity 15    
Precipitation  
Precipitation 0.00 in 0.00 in 0.03 in (1989)
Month to date precipitation T 0.00  
Year to date precipitation 3.61 8.02  
Since 1 July precipitation T  
Snow  
Snow 0.00 in - - ()
Month to date snowfall 0.0  
Since 1 June snowfall 0.0  
Since 1 July snowfall 0.0  
Snow Depth 0.00 in    
Sea Level Pressure  
Sea Level Pressure 29.83 in    
Wind  
Wind Speed 6 mph (NW)    
Max Wind Speed 13 mph    
Max Gust Speed 17 mph    
Visibility 10 miles    
Events      
T = Trace of Precipitation, MM = Missing Value Source: NWS Daily Summary

Daily Weather History Graph

Daily Weather History Graph

Search for Another Location

Airport or City:

Trip Planner

Search our weather history database for the weather conditions in past years. The results will help you decide how hot, cold, wet, or windy it might be!

Date:

Astronomy

Aug. 08, 2014 Rise Set
Actual Time 6:11 AM PDT 8:00 PM PDT
Civil Twilight 5:43 AM PDT 8:28 PM PDT
Nautical Twilight 5:09 AM PDT 9:02 PM PDT
Astronomical Twilight 4:32 AM PDT 9:38 PM PDT
Moon 6:15 PM PDT (8/8) 3:50 AM PDT (8/8)
Length of Visible Light 14h 44m
Length of Day
13h 48m
Waxing Gibbous, 94% of the Moon is Illuminated
Aug 8
Waxing Gibbous
Aug 10
Full
Aug 17
Last Quarter
Aug 25
New
Sep 2
First Quarter

Hourly Weather History & Observations

Time (PDT) Temp. Heat Index Dew Point Humidity Pressure Visibility Wind Dir Wind Speed Gust Speed Precip Events Conditions
12:53 AM 73.9 °F - 57.9 °F 57% 29.85 in 10.0 mi NW 5.8 mph - N/A   Clear
1:53 AM 72.0 °F - 57.9 °F 61% 29.85 in 10.0 mi Calm Calm - N/A   Clear
2:53 AM 72.0 °F - 57.0 °F 59% 29.84 in 10.0 mi Calm Calm - N/A   Clear
3:53 AM 70.0 °F - 55.0 °F 59% 29.84 in 10.0 mi NNW 5.8 mph - N/A   Clear
4:53 AM 69.1 °F - 54.0 °F 58% 29.84 in 10.0 mi North 3.5 mph - N/A   Clear
5:53 AM 69.1 °F - 54.0 °F 58% 29.84 in 10.0 mi NNW 4.6 mph - N/A   Clear
6:53 AM 70.0 °F - 54.0 °F 57% 29.85 in 10.0 mi NNW 4.6 mph - N/A   Clear
7:53 AM 73.0 °F - 54.0 °F 51% 29.86 in 10.0 mi NW 4.6 mph - N/A   Clear
8:53 AM 75.9 °F - 55.9 °F 50% 29.87 in 8.0 mi Calm Calm - N/A   Clear
9:53 AM 82.0 °F 81.6 °F 55.9 °F 41% 29.87 in 8.0 mi Variable 4.6 mph - N/A   Clear
10:53 AM 88.0 °F - 51.1 °F 28% 29.86 in 10.0 mi WNW 6.9 mph - N/A   Clear
11:53 AM 91.9 °F - 48.9 °F 23% 29.86 in 10.0 mi Variable 5.8 mph - N/A   Clear
12:53 PM 95.0 °F 92.5 °F 53.1 °F 24% 29.84 in 10.0 mi WNW 9.2 mph - N/A   Clear
1:53 PM 96.1 °F - 50.0 °F 21% 29.82 in 10.0 mi Variable 4.6 mph - N/A   Clear
2:53 PM 99.0 °F - 48.9 °F 18% 29.80 in 10.0 mi West 9.2 mph - N/A   Clear
3:53 PM 100.0 °F - 46.9 °F 16% 29.78 in 10.0 mi NW 10.4 mph - N/A   Clear
4:53 PM 99.0 °F - 43.0 °F 15% 29.78 in 10.0 mi WNW 9.2 mph - N/A   Clear
5:53 PM 98.1 °F - 45.0 °F 16% 29.77 in 10.0 mi WNW 9.2 mph - N/A   Clear
6:53 PM 95.0 °F 92.5 °F 53.1 °F 24% 29.78 in 10.0 mi NW 8.1 mph - N/A   Clear
7:53 PM 89.1 °F 87.1 °F 55.0 °F 31% 29.78 in 10.0 mi North - - N/A   Clear
8:53 PM 82.9 °F 82.4 °F 57.0 °F 41% 29.80 in 10.0 mi North - - N/A   Clear
9:53 PM 79.0 °F - 57.9 °F 48% 29.81 in 10.0 mi North - - N/A   Clear
10:53 PM 77.0 °F - 55.9 °F 48% 29.82 in 10.0 mi North - - N/A   Clear
11:53 PM 73.9 °F - 55.9 °F 53% 29.82 in 10.0 mi North - - N/A   Clear